Regional Weather Roundup
Issued by NWS

Home | Current Version | Previous Version | Graphics & Text | Print | Product List | Glossary On
Versions: 1 2 3 4 5 6 7 8 9 10 11 12 13 14 15 16 17 18 19 20 21 22 23 24 25 26 27 28 29 30 31 32 33 34 35 36 37 38 39 40 41 42 43 44 45 46 47 48 49 50
849
ASUS45 KBOI 260810
RWRID

IDAHO REGIONAL WEATHER ROUNDUP
NATIONAL WEATHER SERVICE BOISE ID
200 AM MDT MON JUN 26 2017

NOTE: "FAIR" INDICATES FEW OR NO CLOUDS BELOW 12000 FEET
WITH NO SIGNIFICANT WEATHER AND/OR OBSTRUCTIONS TO VISIBILITY

IDZ012-014-260900-
SOUTHWEST IDAHO


CITY           SKY/WX    TMP DP  RH WIND       PRES   REMARKS
BOISE          CLEAR     72  45  37 E3        29.96S
CALDWELL       CLEAR     64  55  72 E3        29.94S
MOUNTAIN HOME  CLEAR     67  38  35 E3        29.98S
$$

IDZ016-017-260900-
SOUTHCENTRAL IDAHO


CITY           SKY/WX    TMP DP  RH WIND       PRES   REMARKS
BURLEY         CLEAR     60  53  77 CALM      30.07F
JEROME         CLEAR     68  45  43 NE8       30.07S
TWIN FALLS     CLEAR     69  40  34 S10       30.06F
$$

IDZ019>023-260900-
SOUTHEAST IDAHO


CITY           SKY/WX    TMP DP  RH WIND       PRES   REMARKS
IDAHO FALLS    CLEAR     53  49  86 N6        30.18S
POCATELLO      CLEAR     60  43  53 E5        30.14S
REXBURG        CLEAR     55  49  80 E6        30.20S
$$

IDZ006-010-011-018-031-032-260900-
CENTRAL IDAHO MOUNTAINS


CITY           SKY/WX    TMP DP  RH WIND       PRES   REMARKS
MCCALL         CLEAR     55  44  66 CALM      30.13F
HAILEY         CLEAR     57  43  58 NW10      30.23F
STANLEY          N/A     53  40  61 S5        30.29S
SALMON         CLEAR     55  43  62 CALM      30.10S
CHALLIS        CLEAR     59  41  51 CALM      30.18R
$$

IDZ002-004-006-007-026-260900-
NORTHERN IDAHO


CITY           SKY/WX    TMP DP  RH WIND       PRES   REMARKS
LEWISTON       PTCLDY    74  49  41 CALM      29.85S
LOWELL           N/A     61  55  81 N3        29.95S
COEUR D`ALENE  MOCLDY    66  55  67 E7        29.92S
MULLAN PASS    CLEAR     66  37  34 SE9       30.18F
$$




USA.gov is the U.S. government's official web portal to all federal, state and local government web resources and services.